{"data":{"norad_id":61012,"epoch":"2026-05-25T04:09:39.790944Z","epoch_age_seconds":74252,"freshness":"FRESH","line1":"1 61012U 24159B   26145.17337721  .00001314  00000+0  18247-3 0  9993","line2":"2 61012  49.9931 190.0674 0019370 326.8316  33.1407 14.84150619 93372","mean_motion":14.84150619,"eccentricity":0.001937,"inclination_deg":49.9931,"raan_deg":190.0674,"arg_perigee_deg":326.8316,"mean_anomaly_deg":33.1407,"bstar":0.00018247,"rev_number":9337,"period_min":97.02519283186,"perigee_km":602.70505670454,"apogee_km":629.80132430255,"semimajor_km":6994.3901905035,"source":"CELESTRAK","updated_at":"2026-05-25T13:38:02.275943Z"}}